TimeEST,TemperatureF,Dew PointF,Humidity,Sea Level PressureIn,VisibilityMPH,Wind Direction,Wind SpeedMPH,Gust SpeedMPH,PrecipitationIn,Events,Conditions,WindDirDegrees,DateUTC
12:56 AM,46.9,39.9,77,30.10,10.0,North,16.1,-,N/A,,Overcast,350,2013-01-18 05:56:00
1:14 AM,46.4,39.2,76,30.11,10.0,North,17.3,26.5,N/A,,Scattered Clouds,10,2013-01-18 06:14:00
1:56 AM,45.0,37.9,76,30.17,10.0,North,17.3,26.5,N/A,,Scattered Clouds,360,2013-01-18 06:56:00
2:14 AM,44.6,37.4,76,30.19,10.0,North,16.1,27.6,N/A,,Mostly Cloudy,10,2013-01-18 07:14:00
2:56 AM,45.0,37.0,74,30.21,10.0,North,21.9,36.8,N/A,,Scattered Clouds,10,2013-01-18 07:56:00
3:56 AM,43.0,36.0,76,30.25,10.0,North,18.4,28.8,N/A,,Partly Cloudy,10,2013-01-18 08:56:00
4:56 AM,41.0,36.0,82,30.27,10.0,North,12.7,-,N/A,,Clear,360,2013-01-18 09:56:00
5:56 AM,39.9,35.1,83,30.30,10.0,North,11.5,-,N/A,,Clear,10,2013-01-18 10:56:00
6:56 AM,39.0,35.1,86,30.35,10.0,North,12.7,-,N/A,,Clear,10,2013-01-18 11:56:00
7:56 AM,39.9,35.1,83,30.38,10.0,North,10.4,-,N/A,,Partly Cloudy,10,2013-01-18 12:56:00
8:56 AM,43.0,35.1,74,30.42,10.0,North,12.7,19.6,N/A,,Partly Cloudy,10,2013-01-18 13:56:00
9:56 AM,46.0,32.0,58,30.45,10.0,NNE,18.4,24.2,N/A,,Clear,20,2013-01-18 14:56:00
10:56 AM,48.9,28.0,44,30.46,10.0,NNE,15.0,24.2,N/A,,Clear,30,2013-01-18 15:56:00
11:56 AM,53.1,26.1,35,30.45,10.0,NNE,15.0,-,N/A,,Clear,30,2013-01-18 16:56:00
12:56 PM,55.0,25.0,31,30.43,10.0,North,15.0,-,N/A,,Partly Cloudy,360,2013-01-18 17:56:00
1:56 PM,55.0,23.0,29,30.42,10.0,NE,8.1,19.6,N/A,,Partly Cloudy,40,2013-01-18 18:56:00
2:56 PM,55.9,19.0,24,30.42,10.0,NE,13.8,-,N/A,,Partly Cloudy,40,2013-01-18 19:56:00
3:56 PM,55.9,21.0,26,30.43,10.0,NNE,8.1,-,N/A,,Partly Cloudy,30,2013-01-18 20:56:00
4:56 PM,53.1,21.0,29,30.45,10.0,North,9.2,-,N/A,,Partly Cloudy,10,2013-01-18 21:56:00
5:56 PM,48.0,23.0,37,30.47,10.0,NE,6.9,-,N/A,,Partly Cloudy,40,2013-01-18 22:56:00
6:56 PM,45.0,26.1,48,30.48,10.0,NNE,9.2,-,N/A,,Clear,20,2013-01-18 23:56:00
7:56 PM,43.0,26.1,51,30.49,10.0,NE,6.9,-,N/A,,Clear,40,2013-01-19 00:56:00
8:56 PM,42.1,26.1,53,30.50,10.0,NE,6.9,-,N/A,,Clear,40,2013-01-19 01:56:00
9:56 PM,39.9,27.0,60,30.50,10.0,NNE,4.6,-,N/A,,Clear,20,2013-01-19 02:56:00
10:56 PM,39.0,28.0,65,30.49,10.0,NNE,5.8,-,N/A,,Partly Cloudy,20,2013-01-19 03:56:00
11:56 PM,39.0,28.0,65,30.48,10.0,NNE,8.1,-,N/A,,Partly Cloudy,30,2013-01-19 04:56:00